Albuquerque Double Eagle, NM

7:16 PM MDT on October 20, 2017 (GMT -0600)
Double Eagle Ii

Weather History for KAEG - December, 2012

Change the Weather History Date:

Tuesday, December 18, 2012

  Actual Average (KABQ) Record (KABQ)
Temperature  
Mean Temperature 28 °F -  
Max Temperature 41 °F 47 °F 65 °F (1980)
Min Temperature 15 °F 23 °F 6 °F (1971)
Degree Days  
Heating Degree Days 37    
Moisture  
Dew Point 21 °F    
Average Humidity 79    
Maximum Humidity 100    
Minimum Humidity 52    
Precipitation  
Precipitation 0.00 in - - ()
Sea Level Pressure  
Sea Level Pressure 29.88 in    
Wind  
Wind Speed 1 mph (SW)    
Max Wind Speed 14 mph    
Max Gust Speed 18 mph    
Visibility 10 miles    
Events      
Averages and records for this station are not official NWS values.
T = Trace of Precipitation, MM = Missing Value Source: NWS Daily Summary

Daily Weather History Graph

Daily Weather History Graph

Search for Another Location

Airport or City:

Trip Planner

Search our weather history database for the weather conditions in past years. The results will help you decide how hot, cold, wet, or windy it might be!

Date:

Astronomy

Dec. 18, 2012 Rise Set
Actual Time 7:10 AM MST 4:57 PM MST
Civil Twilight 6:42 AM MST 5:26 PM MST
Nautical Twilight 6:10 AM MST 5:57 PM MST
Astronomical Twilight 5:39 AM MST 6:28 PM MST
Moon 11:03 AM MST (12/18) 11:13 PM MST (12/18)
Length of Visible Light 10h 44m
Length of Day
9h 47m
Waxing Crescent, 35% of the Moon is Illuminated
Dec 18
Waxing Crescent
Dec 19
First Quarter
Dec 28
Full
Jan 4
Last Quarter
Jan 11
New

Hourly Weather History & Observations

Time (MST) Temp. Windchill Dew Point Humidity Pressure Visibility Wind Dir Wind Speed Gust Speed Precip Events Conditions
12:15 AM 17.6 °F - 15.8 °F 93% 29.99 in 10.0 mi Calm Calm - N/A   Clear
12:35 AM 17.6 °F - 17.6 °F 100% 29.99 in 10.0 mi Calm Calm - N/A   Clear
12:55 AM 19.4 °F - 19.4 °F 100% 29.97 in 10.0 mi Calm Calm - N/A   Clear
1:15 AM 19.4 °F - 17.6 °F 93% 29.97 in 10.0 mi Calm Calm - N/A   Clear
1:35 AM 17.6 °F - 15.8 °F 93% 29.97 in 10.0 mi Calm Calm - N/A   Clear
1:55 AM 19.4 °F - 17.6 °F 93% 29.97 in 10.0 mi Calm Calm - N/A   Clear
2:15 AM 17.6 °F - 17.6 °F 100% 29.97 in 10.0 mi Calm Calm - N/A   Clear
2:35 AM 19.4 °F - 19.4 °F 100% 29.97 in 10.0 mi Calm Calm - N/A   Clear
2:55 AM 19.4 °F - 17.6 °F 93% 29.97 in 10.0 mi Calm Calm - N/A   Clear
3:15 AM 17.6 °F - 17.6 °F 100% 29.96 in 10.0 mi Calm Calm - N/A   Clear
3:35 AM 15.8 °F - 14.0 °F 93% 29.96 in 10.0 mi Calm Calm - N/A   Clear
3:55 AM 15.8 °F - 14.0 °F 93% 29.95 in 10.0 mi Calm Calm - N/A   Clear
4:15 AM 19.4 °F - 17.6 °F 93% 29.94 in 10.0 mi Calm Calm - N/A   Clear
4:35 AM 17.6 °F - 17.6 °F 100% 29.94 in 10.0 mi Calm Calm - N/A   Clear
7:50 AM 17.6 °F - 15.8 °F 93% 29.98 in 10.0 mi Calm Calm - N/A   Scattered Clouds
8:50 AM 28.4 °F - 24.8 °F 86% 30.00 in 10.0 mi Calm Calm - N/A   Mostly Cloudy
9:50 AM 30.2 °F - 23.0 °F 75% 30.00 in 10.0 mi Calm Calm - N/A   Mostly Cloudy
10:50 AM 35.6 °F - 24.8 °F 65% 29.97 in 10.0 mi Calm Calm - N/A   Mostly Cloudy
11:50 AM 37.4 °F - 24.8 °F 60% 29.94 in 10.0 mi Calm Calm - N/A   Mostly Cloudy
12:50 PM 39.2 °F - 24.8 °F 56% 29.90 in 10.0 mi Calm Calm - N/A   Mostly Cloudy
1:50 PM 41.0 °F 38.0 °F 24.8 °F 53% 29.86 in 10.0 mi SSE 4.6 mph - N/A   Mostly Cloudy
2:50 PM 39.2 °F - 24.8 °F 56% 29.84 in 10.0 mi Calm Calm - N/A   Mostly Cloudy
3:50 PM 39.2 °F - 23.0 °F 52% 29.81 in 10.0 mi Calm Calm - N/A   Mostly Cloudy
4:50 PM 35.6 °F - 23.0 °F 60% 29.79 in 10.0 mi Calm Calm - N/A   Mostly Cloudy
5:50 PM 35.6 °F 29.9 °F 23.0 °F 60% 29.80 in 10.0 mi WSW 6.9 mph - N/A   Mostly Cloudy
6:50 PM 33.8 °F - 24.8 °F 70% 29.80 in 10.0 mi Calm Calm - N/A   Mostly Cloudy
8:50 PM 32.0 °F - 23.0 °F 69% 29.76 in 10.0 mi Calm Calm - N/A   Clear
9:15 PM 30.2 °F - 23.0 °F 75% 29.76 in 10.0 mi Calm Calm - N/A   Clear
9:35 PM - - - N/A% - 10.0 mi North - - N/A   Unknown
9:50 PM 32.0 °F - 23.0 °F 69% 29.75 in 10.0 mi Calm Calm - N/A   Mostly Cloudy
9:55 PM 30.2 °F - 23.0 °F 75% 29.75 in 10.0 mi Calm Calm - N/A   Partly Cloudy
10:15 PM 32.0 °F - 23.0 °F 69% 29.74 in 10.0 mi Calm Calm - N/A   Clear
10:35 PM 32.0 °F - 23.0 °F 69% 29.74 in 10.0 mi Calm Calm - N/A   Scattered Clouds
10:55 PM 32.0 °F 24.2 °F 23.0 °F 69% 29.74 in 10.0 mi West 9.2 mph - N/A   Mostly Cloudy
11:15 PM 32.0 °F 25.6 °F 24.8 °F 75% 29.73 in 10.0 mi SW 6.9 mph - N/A   Mostly Cloudy
11:35 PM 33.8 °F 29.6 °F 24.8 °F 70% 29.71 in 10.0 mi SW 4.6 mph - N/A   Mostly Cloudy
11:55 PM 35.6 °F 26.6 °F 24.8 °F 65% 29.70 in 10.0 mi SSW 13.8 mph 18.4 mph N/A   Mostly Cloudy